K0VXP-1 Weather Reports


time (UTC)temp
F
wind
direction
speed
knots
gust
knots
rain 1hr
in
rain 24hr
in
rain mn
in
humidity
%
barometer
mb
20240527194523 65 263 9.6 18.2 0.00 0.00 0.00 28 1027.1
20240527193022 66 243 7.8 13.0 0.00 0.00 0.00 30 1027.0
20240527191519 65 275 8.7 17.4 0.00 0.00 0.00 29 1027.1
20240527190016 65 281 6.1 14.8 0.00 0.00 0.00 32 1027.2
20240527184517 63 278 7.0 12.2 0.00 0.00 0.00 36 1027.6
20240527183016 63 287 7.0 10.4 0.00 0.00 0.00 36 1027.7
20240527181515 62 195 5.2 11.3 0.00 0.00 0.00 38 1027.7
20240527180013 61 157 1.7 8.7 0.00 0.00 0.00 39 1027.7
20240527174515 61 177 2.6 8.7 0.00 0.00 0.00 38 1027.8
20240527173017 60 240 0.9 8.7 0.00 0.00 0.00 40 1028.0
20240527171517 60 338 3.5 8.7 0.00 0.00 0.00 41 1028.0
20240527170018 59 270 1.7 4.3 0.00 0.00 0.00 42 1028.1
20240527164520 59 317 3.5 7.8 0.00 0.00 0.00 43 1028.0
20240527163027 58 18 3.5 8.7 0.00 0.00 0.00 43 1028.0
20240527161515 56 0 0.9 4.3 0.00 0.00 0.00 47 1028.0
20240527160016 55 232 1.7 5.2 0.00 0.00 0.00 53 1028.0
20240527154517 54 224 1.7 5.2 0.00 0.00 0.00 57 1028.1
20240527153017 52 232 1.7 6.1 0.00 0.00 0.00 60 1028.0
20240527151519 51 232 2.6 6.1 0.00 0.00 0.00 60 1027.8
20240527150015 50 261 1.7 5.2 0.00 0.00 0.00 60 1027.8
20240527144513 51 252 2.6 4.3 0.00 0.00 0.00 57 1027.8
20240527143015 49 323 0.9 2.6 0.00 0.00 0.00 59 1027.6
20240527141519 48 350 1.7 4.3 0.00 0.00 0.00 62 1027.7
20240527140017 46 328 1.7 3.5 0.00 0.00 0.00 63 1027.4
20240527134517 45 270 1.7 3.5 0.00 0.00 0.00 64 1027.3
20240527133014 46 280 0.0 2.6 0.00 0.00 0.00 63 1027.3
20240527131518 44 42 2.6 4.3 0.00 0.00 0.00 65 1027.1
20240527130018 43 63 2.6 4.3 0.00 0.00 0.00 68 1027.1
20240527124518 40 76 0.0 4.3 0.00 0.00 0.00 72 1027.0
20240527123017 38 78 3.5 6.1 0.00 0.00 0.00 73 1026.7
20240527121514 37 76 2.6 5.2 0.00 0.00 0.00 73 1026.6
20240527120018 37 72 3.5 6.1 0.00 0.00 0.00 73 1026.3
20240527114517 37 71 2.6 6.1 0.00 0.00 0.00 73 1026.2
20240527113014 38 76 2.6 3.5 0.00 0.00 0.00 72 1026.1
20240527111527 38 42 0.9 3.5 0.00 0.00 0.00 72 1025.9
20240527110013 38 46 2.6 4.3 0.00 0.00 0.00 73 1025.7
20240527104515 38 51 2.6 4.3 0.00 0.00 0.00 73 1025.7
20240527103016 37 47 3.5 4.3 0.00 0.00 0.00 73 1025.5
20240527101520 38 44 3.5 5.2 0.00 0.00 0.00 69 1025.5
20240527100024 40 33 1.7 2.6 0.00 0.00 0.00 67 1025.4
20240527094513 40 33 1.7 3.5 0.00 0.00 0.00 69 1025.5
20240527093012 40 318 1.7 2.6 0.00 0.00 0.00 68 1025.4
20240527091515 40 91 0.0 1.7 0.00 0.00 0.00 68 1025.4
20240527090013 41 0 0.0 3.5 0.00 0.00 0.00 68 1025.4
20240527084515 41 67 1.7 4.3 0.00 0.00 0.00 68 1025.4
20240527083013 41 80 3.5 7.0 0.00 0.00 0.00 68 1025.4
20240527081515 41 80 3.5 6.1 0.00 0.00 0.00 69 1025.2
20240527080017 41 74 3.5 5.2 0.00 0.00 0.00 67 1025.2
20240527074513 41 78 3.5 6.1 0.00 0.00 0.00 67 1025.2
20240527073014 41 83 3.5 7.0 0.00 0.00 0.00 68 1025.2
20240527071515 41 71 4.3 7.0 0.00 0.00 0.00 68 1025.2
20240527070016 41 65 4.3 7.0 0.00 0.00 0.00 66 1025.0
20240527064517 42 78 3.5 7.0 0.00 0.00 0.00 67 1025.2
20240527063017 41 73 4.3 7.0 0.00 0.00 0.00 67 1025.2
20240527061536 41 83 4.3 6.1 0.00 0.00 0.00 67 1025.2
20240527060017 42 75 4.3 7.8 0.00 0.00 0.00 66 1025.1
20240527054513 42 83 4.3 7.0 0.00 0.01 0.00 66 1025.2
20240527053015 42 103 5.2 7.0 0.00 0.01 0.00 66 1025.0
20240527051537 42 94 4.3 7.0 0.00 0.01 0.00 66 1025.0
20240527050013 42 87 4.3 7.0 0.00 0.01 0.00 66 1025.1
20240527044513 42 86 4.3 7.0 0.00 0.01 0.00 65 1024.9
20240527043016 43 73 4.3 7.0 0.00 0.01 0.00 64 1025.0
20240527041513 45 108 4.3 7.0 0.00 0.01 0.00 61 1024.8
20240527040018 48 91 2.6 6.1 0.00 0.01 0.00 56 1024.9
20240527034517 48 138 1.7 3.5 0.00 0.04 0.00 54 1024.7
20240527033016 48 200 0.9 2.6 0.00 0.04 0.00 54 1024.6
20240527031515 49 256 0.9 3.5 0.00 0.04 0.00 53 1024.2
20240527030019 49 240 2.6 5.2 0.00 0.04 0.00 52 1024.0
20240527024517 50 252 2.6 5.2 0.00 0.06 0.00 52 1023.8
20240527023016 51 251 3.5 8.7 0.00 0.06 0.00 51 1023.7
20240527021513 52 246 3.5 6.1 0.00 0.06 0.00 51 1023.5
20240527020016 53 229 4.3 7.8 0.00 0.06 0.00 50 1023.4
20240527014515 54 262 3.5 7.0 0.00 0.14 0.00 50 1023.4
20240527013032 55 248 1.7 7.8 0.00 0.14 0.00 50 1023.2
20240527011521 56 250 3.5 9.6 0.00 0.14 0.00 47 1022.9
20240527010016 56 243 5.2 7.8 0.00 0.14 0.00 47 1022.9
20240527004514 56 259 5.2 9.6 0.00 0.14 0.00 47 1022.7
20240527003015 56 258 4.3 7.8 0.00 0.14 0.00 46 1022.6
20240527001518 56 248 6.1 9.6 0.00 0.14 0.00 46 1022.7
20240527000018 58 255 5.2 10.4 0.00 0.14 0.00 44 1022.5
20240526234513 58 236 5.2 8.7 0.00 0.17 0.00 44 1022.6
20240526233020 59 281 2.6 10.4 0.00 0.17 0.00 42 1022.5
20240526231513 59 267 6.1 11.3 0.00 0.17 0.00 45 1022.5
20240526230018 60 294 5.2 11.3 0.00 0.17 0.00 44 1022.4
20240526224515 58 210 4.3 8.7 0.00 0.17 0.00 44 1022.4
20240526223015 57 182 1.7 6.1 0.00 0.17 0.00 48 1022.5
20240526221513 57 224 3.5 7.0 0.00 0.17 0.00 48 1022.4
20240526220016 55 265 3.5 8.7 0.00 0.17 0.00 48 1022.4
20240526214514 56 249 3.5 7.8 0.00 0.17 0.00 49 1022.5
20240526213019 55 257 5.2 9.6 0.00 0.17 0.00 48 1022.4
20240526211516 55 238 3.5 11.3 0.00 0.17 0.00 48 1022.3
20240526210019 56 230 7.0 13.0 0.00 0.17 0.00 49 1022.4
20240526204513 56 254 5.2 13.9 0.00 0.18 0.00 48 1022.5
20240526203014 55 239 2.6 11.3 0.00 0.18 0.00 50 1022.5
20240526201513 55 274 5.2 14.8 0.00 0.18 0.00 50 1022.7
20240526200012 54 294 3.5 10.4 0.00 0.18 0.00 51 1022.7